Weather History for KHBR - December, 2013

Change the Weather History Date:

Sunday, December 1, 2013

  Actual Average Record
Temperature  
Mean Temperature 49 °F -  
Max Temperature 59 °F 53 °F 78 °F (2012)
Min Temperature 39 °F 32 °F 8 °F (2006)
Degree Days  
Heating Degree Days 16    
Moisture  
Dew Point 40 °F    
Average Humidity 78    
Maximum Humidity 93    
Minimum Humidity 53    
Precipitation  
Precipitation 0.00 in - - ()
Sea Level Pressure  
Sea Level Pressure 30.02 in    
Wind  
Wind Speed 2 mph (NE)    
Max Wind Speed 9 mph    
Max Gust Speed -    
Visibility 9 miles    
Events      
Averages and records for this station are not official NWS values.
T = Trace of Precipitation, MM = Missing Value Source: NWS Daily Summary

Daily Weather History Graph

Daily Weather History Graph

Search for Another Location

Airport or City:

Trip Planner

Search our weather history database for the weather conditions in past years. The results will help you decide how hot, cold, wet, or windy it might be!

Date:

Astronomy

Dec. 01, 2013 Rise Set
Actual Time 7:26 AM CST 5:24 PM CST
Civil Twilight 6:58 AM CST 5:52 PM CST
Nautical Twilight 6:27 AM CST 6:23 PM CST
Astronomical Twilight 5:56 AM CST 6:54 PM CST
Moon 5:48 AM CST 4:33 PM CST
Length of Visible Light 10h 53m
Length of Day
9h 58m
Waning Crescent, 2% of the Moon is Illuminated
Dec 1
Waning Crescent
Dec 2
New
Dec 9
First Quarter
Dec 17
Full
Dec 25
Last Quarter

Hourly Weather History & Observations

Time (CST) Temp. Windchill Dew Point Humidity Pressure Visibility Wind Dir Wind Speed Gust Speed Precip Events Conditions
12:53 AM 43.0 °F - 39.0 °F 86% 30.10 in 10.0 mi Calm Calm - N/A   Clear
1:53 AM 41.0 °F - 37.9 °F 89% 30.09 in 9.0 mi Calm Calm - N/A   Clear
2:53 AM 39.0 °F 34.8 °F 37.0 °F 93% 30.09 in 8.0 mi North 5.8 mph - N/A   Clear
3:53 AM 39.0 °F - 37.0 °F 93% 30.09 in 8.0 mi Calm Calm - N/A   Clear
4:53 AM 39.9 °F - 37.9 °F 93% 30.08 in 8.0 mi Calm Calm - N/A   Clear
5:53 AM 39.0 °F - 37.0 °F 93% 30.07 in 6.0 mi Calm Calm - N/A   Clear
6:53 AM 39.0 °F - 37.0 °F 93% 30.08 in 6.0 mi Calm Calm - N/A   Clear
7:53 AM 39.0 °F 36.8 °F 37.0 °F 93% 30.08 in 4.0 mi NE 3.5 mph - N/A   Clear
8:53 AM 41.0 °F 39.0 °F 39.0 °F 93% 30.09 in 4.0 mi NE 3.5 mph - N/A   Clear
9:53 AM 46.9 °F - 42.1 °F 83% 30.09 in 10.0 mi ENE 5.8 mph - N/A   Clear
10:53 AM 50.0 °F - 41.0 °F 71% 30.08 in 10.0 mi NE 9.2 mph - N/A   Clear
11:53 AM 54.0 °F - 42.1 °F 64% 30.06 in 10.0 mi NNE 5.8 mph - N/A   Clear
12:53 PM 57.9 °F - 42.1 °F 56% 30.02 in 10.0 mi NE 6.9 mph - N/A   Clear
1:53 PM 59.0 °F - 42.1 °F 53% 29.99 in 10.0 mi NE 8.1 mph - N/A   Clear
2:53 PM 59.0 °F - 42.1 °F 53% 29.98 in 10.0 mi NNE 8.1 mph - N/A   Clear
3:53 PM 59.0 °F - 42.1 °F 53% 29.97 in 10.0 mi Calm Calm - N/A   Clear
4:53 PM 55.9 °F - 44.1 °F 64% 29.96 in 10.0 mi Calm Calm - N/A   Clear
5:53 PM 53.1 °F - 42.1 °F 66% 29.97 in 10.0 mi Calm Calm - N/A   Clear
6:53 PM 51.1 °F - 39.9 °F 66% 29.96 in 10.0 mi Calm Calm - N/A   Clear
7:53 PM 48.0 °F - 39.9 °F 74% 29.96 in 10.0 mi Calm Calm - N/A   Clear
8:53 PM 45.0 °F - 39.0 °F 80% 29.96 in 10.0 mi Calm Calm - N/A   Clear
9:53 PM 44.1 °F - 39.0 °F 82% 29.96 in 10.0 mi Calm Calm - N/A   Clear
10:53 PM 39.0 °F - 37.0 °F 93% 29.94 in 6.0 mi Calm Calm - N/A   Clear
11:53 PM 39.0 °F 36.8 °F 36.0 °F 89% 29.92 in 7.0 mi North 3.5 mph - N/A   Clear